Weather History for KSBN - June, 2014

Change the Weather History Date:

Wednesday, June 4, 2014

  Actual Average Record
Temperature  
Mean Temperature 60 °F 66 °F  
Max Temperature 66 °F 76 °F 98 °F (1934)
Min Temperature 54 °F 55 °F 36 °F (1945)
Degree Days  
Heating Degree Days 5 3  
Month to date heating degree days 5 12  
Since 1 June heating degree days 5 12  
Since 1 July heating degree days 6941 6266  
Cooling Degree Days 0 3  
Month to date cooling degree days 28 12  
Year to date cooling degree days 113 68  
Since 1 June cooling degree days 28 12  
Growing Degree Days 12 (Base 50)    
Moisture  
Dew Point 55 °F    
Average Humidity 73    
Maximum Humidity 93    
Minimum Humidity 52    
Precipitation  
Precipitation 0.93 in 0.14 in 1.34 in (1962)
Month to date precipitation 1.46 0.53  
Year to date precipitation 16.54 14.25  
Snow  
Snow 0.00 in 0.00 in - ()
Month to date snowfall 0.0  
Since 1 June snowfall 0.0  
Since 1 July snowfall 66.6  
Snow Depth -    
Sea Level Pressure  
Sea Level Pressure 29.87 in    
Wind  
Wind Speed 8 mph (ENE)    
Max Wind Speed 18 mph    
Max Gust Speed 25 mph    
Visibility 8 miles    
Events Rain    
T = Trace of Precipitation, MM = Missing Value Source: NWS Daily Summary

Daily Weather History Graph

Daily Weather History Graph

Search for Another Location

Airport or City:

Trip Planner

Search our weather history database for the weather conditions in past years. The results will help you decide how hot, cold, wet, or windy it might be!

Date:

Astronomy

Jun. 04, 2014 Rise Set
Actual Time 6:11 AM EDT 9:15 PM EDT
Civil Twilight 5:38 AM EDT 9:49 PM EDT
Nautical Twilight 4:55 AM EDT 10:32 PM EDT
Astronomical Twilight 4:04 AM EDT 11:23 PM EDT
Moon 12:34 PM EDT (6/4) 1:10 AM EDT (6/4)
Length of Visible Light 16h 10m
Length of Day
15h 03m
Waxing Crescent, 39% of the Moon is Illuminated
Jun 4
Waxing Crescent
Jun 5
First Quarter
Jun 13
Full
Jun 19
Last Quarter
Jun 27
New

Hourly Weather History & Observations

Time (EDT) Temp. Dew Point Humidity Pressure Visibility Wind Dir Wind Speed Gust Speed Precip Events Conditions
12:54 AM 64.4 °F 51.8 °F 64% 29.93 in 10.0 mi ENE 3.5 mph - N/A   Clear
1:54 AM 64.0 °F 51.1 °F 63% 29.93 in 10.0 mi East 3.5 mph - N/A   Clear
2:54 AM 63.0 °F 51.1 °F 65% 29.91 in 10.0 mi East 4.6 mph - N/A   Clear
3:54 AM 64.0 °F 50.0 °F 60% 29.89 in 10.0 mi SSE 3.5 mph - N/A   Clear
4:54 AM 64.9 °F 48.9 °F 56% 29.89 in 10.0 mi SE 4.6 mph - N/A   Partly Cloudy
5:54 AM 64.9 °F 50.0 °F 58% 29.89 in 10.0 mi South 4.6 mph - N/A   Overcast
6:54 AM 66.0 °F 48.9 °F 54% 29.88 in 10.0 mi SSE 5.8 mph - N/A   Overcast
7:54 AM 64.9 °F 52.0 °F 63% 29.86 in 10.0 mi SE 8.1 mph - 0.00 in Rain Light Rain
8:54 AM 64.9 °F 52.0 °F 63% 29.85 in 10.0 mi SE 9.2 mph - 0.00 in Rain Light Rain
9:54 AM 63.0 °F 54.0 °F 72% 29.83 in 9.0 mi ESE 15.0 mph - 0.01 in Rain Light Rain
10:54 AM 61.0 °F 57.9 °F 90% 29.84 in 3.0 mi ESE 11.5 mph - 0.08 in Rain Rain
11:09 AM 61.0 °F 57.0 °F 87% 29.86 in 2.5 mi ESE 11.5 mph - 0.04 in Rain Rain
11:30 AM 60.1 °F 57.0 °F 90% 29.85 in 1.8 mi East 15.0 mph 20.7 mph 0.15 in Rain Heavy Rain
11:39 AM 60.1 °F 57.0 °F 90% 29.84 in 2.0 mi East 11.5 mph 19.6 mph 0.20 in Rain Heavy Rain
11:48 AM 59.0 °F 57.2 °F 94% 29.84 in 2.0 mi East 10.4 mph 20.7 mph 0.26 in Rain Heavy Rain
11:49 AM 59.0 °F 57.0 °F 93% 29.84 in 2.0 mi East 10.4 mph 20.7 mph 0.27 in Rain Heavy Rain
12:25 PM 59.0 °F 57.0 °F 93% 29.84 in 2.5 mi ENE 10.4 mph 16.1 mph 0.18 in Rain Rain
12:52 PM 59.0 °F 57.2 °F 94% 29.84 in 2.5 mi East 12.7 mph - 0.26 in Rain Rain
12:54 PM 59.0 °F 57.0 °F 93% 29.84 in 2.5 mi East 16.1 mph 23.0 mph 0.26 in Rain Rain
1:28 PM 59.0 °F 57.0 °F 93% 29.84 in 2.5 mi East 12.7 mph 19.6 mph 0.12 in Rain Rain
1:54 PM 59.0 °F 55.9 °F 90% 29.84 in 2.5 mi East 12.7 mph - 0.21 in Rain Heavy Rain
2:38 PM 60.1 °F 55.9 °F 86% 29.84 in 4.0 mi East 11.5 mph - 0.09 in Rain Light Rain
2:54 PM 60.1 °F 57.9 °F 93% 29.83 in 6.0 mi East 15.0 mph 19.6 mph 0.10 in Rain Light Rain
3:54 PM 61.0 °F 55.9 °F 83% 29.83 in 10.0 mi East 11.5 mph - 0.00 in   Overcast
4:01 PM 62.1 °F 55.9 °F 80% 29.84 in 10.0 mi East 9.2 mph - N/A   Overcast
4:54 PM 64.0 °F 54.0 °F 70% 29.84 in 10.0 mi ESE 15.0 mph - N/A   Overcast
5:54 PM 64.0 °F 55.9 °F 75% 29.86 in 10.0 mi NNE 9.2 mph - N/A   Overcast
6:54 PM 64.9 °F 55.9 °F 73% 29.86 in 10.0 mi NNE 9.2 mph - 0.00 in   Scattered Clouds
7:54 PM 64.9 °F 55.9 °F 73% 29.86 in 10.0 mi NNE 9.2 mph - N/A   Scattered Clouds
8:54 PM 63.0 °F 55.0 °F 75% 29.88 in 10.0 mi NNE 5.8 mph - N/A   Clear
9:54 PM 60.1 °F 55.0 °F 83% 29.89 in 10.0 mi Calm Calm - N/A   Clear
10:22 PM 61.0 °F 57.0 °F 87% 29.90 in 10.0 mi North 10.4 mph - N/A   Scattered Clouds
10:29 PM 61.0 °F 57.0 °F 87% 29.90 in 10.0 mi North 9.2 mph - N/A   Mostly Cloudy
10:36 PM 60.1 °F 55.9 °F 86% 29.90 in 9.0 mi North 9.2 mph - N/A   Mostly Cloudy
10:52 PM 59.0 °F 55.4 °F 88% 29.90 in 10.0 mi North 9.2 mph - N/A   Scattered Clouds
10:54 PM 59.0 °F 55.4 °F 88% 29.90 in 10.0 mi North 8.1 mph - N/A   Partly Cloudy
11:54 PM 55.9 °F 52.0 °F 87% 29.91 in 10.0 mi NNW 5.8 mph - N/A   Clear